This is the latest recevied weather packets stored in our database for station/object KE8KMM. If no packets are shown the sender has not sent any weather packets the latest 10 day(s).
| Time | Temp. | Humidity | Pressure | Rain* | Wind** | Luminosity | Snow |
|---|---|---|---|---|---|---|---|
| 1778031989 | 15° C | 96% | 1006.5 hPa | 1.27 mm | - | 0 W/m² | - |
| 1778031684 | 15° C | 96% | 1006.5 hPa | 0 mm | - | 0 W/m² | - |
| 1778031383 | 15° C | 96% | 1006.6 hPa | 0 mm | - | 0 W/m² | - |
| 1778031079 | 15° C | 96% | 1006.3 hPa | 0 mm | - | 0 W/m² | - |
| 1778030776 | 15° C | 96% | 1006.4 hPa | 0 mm | - | 0 W/m² | - |
| 1778030472 | 15° C | 96% | 1006.1 hPa | 0 mm | - | 0 W/m² | - |
| 1778030171 | 15° C | 95% | 1006.4 hPa | 0 mm | - | 0 W/m² | - |
| 1778029866 | 15° C | 95% | 1006.1 hPa | 0 mm | - | 0 W/m² | - |
| 1778029560 | 15° C | 95% | 1006.2 hPa | 0 mm | - | 0 W/m² | - |
| 1778029256 | 15° C | 95% | 1006.5 hPa | 0 mm | - | 0 W/m² | - |
| 1778028954 | 15° C | 95% | 1006.2 hPa | 0 mm | - | 0 W/m² | - |
| 1778028650 | 15° C | 95% | 1006.3 hPa | 0 mm | - | 0 W/m² | - |
| 1778028347 | 15° C | 95% | 1006.2 hPa | 0 mm | - | 0 W/m² | - |
| 1778028043 | 15° C | 94% | 1006.2 hPa | 0 mm | - | 0 W/m² | - |
| 1778027740 | 15.56° C | 94% | 1006.4 hPa | 0 mm | - | 0 W/m² | - |
| 1778027436 | 15.56° C | 94% | 1006.3 hPa | 0 mm | - | 0 W/m² | - |
| 1778027132 | 15.56° C | 94% | 1006.3 hPa | 0 mm | - | 0 W/m² | - |
| 1778026828 | 15.56° C | 94% | 1006.2 hPa | 0 mm | - | 0 W/m² | - |
| 1778026525 | 15.56° C | 93% | 1006.4 hPa | 0 mm | - | 0 W/m² | - |
| 1778026222 | 15.56° C | 93% | 1006.5 hPa | 0 mm | - | 1 W/m² | - |
| 1778025920 | 15.56° C | 92% | 1006.5 hPa | 1.78 mm | - | 1 W/m² | - |
| 1778025617 | 15.56° C | 92% | 1006.7 hPa | 3.56 mm | - | 2 W/m² | - |
| 1778025315 | 15.56° C | 91% | 1006.4 hPa | 14.99 mm | - | 3 W/m² | - |
| 1778025011 | 16.11° C | 90% | 1006.6 hPa | 16.26 mm | - | 1 W/m² | - |
| 1778024708 | 16.67° C | 87% | 1006.5 hPa | 1.27 mm | - | 0 W/m² | - |
* Rain latest hour (hover to see other rain measurements)
** Current wind speed in m/s (hover to see current wind gust speed)